Вернуться в каталог

COSMOS 2364

GLONASS

АктивенНавигацияMEO
NORAD 25593·PAYLOAD·🇷🇺 Russia

Запущен Dec 30, 1998 с Baikonur Cosmodrome

Loading…

Ближайшие Пролёты (ближайшие 24 часа)

TLE

СвежийSource: Space-Track

Эпоха: Sep 14, 2026, 10:29 UTC

1 25593U 98077A   26257.43736405 -.00000029  00000-0  00000-0 0  9991
2 25593  64.3951  57.0211 0032507  54.7633 299.0854  2.13102844215555

Отслеживайте COSMOS 2364 в реальном времени с AllMySat

Download on the App Store